Regional Weather Roundup
Issued by NWS

Home | Current Version | Previous Version | Graphics & Text | Print | Product List | Glossary On
Versions: 1 2 3 4 5 6 7 8 9 10 11 12 13 14 15 16 17 18 19 20 21 22 23 24 25 26 27 28 29 30 31 32 33 34 35 36 37 38 39 40 41 42 43 44 45 46 47 48 49 50
000
ASUS45 KTFX 202104
RWRMT
MONTANA HOURLY WEATHER ROUNDUP
NATIONAL WEATHER SERVICE GREAT FALLS MT
304 PM MDT SUN APR 20 2014

NOTE: "FAIR" INDICATES FEW OR NO CLOUDS BELOW 12000 FEET WITH NO
SIGNIFICANT WEATHER AND/OR OBSTRUCTIONS TO VISIBILITY.

* THESE STATIONS ARE NOT UNDER NWS QUALITY CONTROL. THEY DO NOT
   REPORT WEATHER SUCH AS PRECIPITATION OR FOG.

MTZ001>007-043-202200-
WEST OF THE DIVIDE
CITY           SKY/WX    TMP DP  RH WIND       PRES   REMARKS
KALISPELL      CLOUDY    54  25  33 N/A       30.19F
MISSOULA       SUNNY     55  21  27 NW14      30.23F
BUTTE          SUNNY     54  10  17 NW13G21   30.17F
MULLAN PASS    SUNNY     37  19  48 VRB6      30.23S WCI  32
* ESSEX        N/A       47  25  42 SE4G10     N/A
* LINCOLN      N/A       51  18  27 SW8G22     N/A
* LOOKOUT PASS N/A       43  21  42 E2G10      N/A
* POLSON       N/A       58  24  27 NW4G10     N/A
* SEELEY LAKE  N/A       51  18  27 W8G21      N/A
* THOMP F APT  SUNNY     60  11  14 SE6G13     N/A
$$

MTZ008-052>055-202200-
SOUTHWEST MONTANA
CITY           SKY/WX    TMP DP  RH WIND       PRES   REMARKS
BOZEMAN        SUNNY     61  12  14 W16G26    30.14S
DILLON         SUNNY     57   7  13 SW15G25   30.17S
W YELLOWSTONE  N/A       58  12  16 W4G16      N/A
* BOULDER HILL N/A       51  14  23 S15G23     N/A
* MONIDA PASS  N/A       52  10  18 W12        N/A
* RAYNOLDS PAS N/A       52  47  83 SW9G17     N/A
* WHITEHALL    N/A       63  11  13 W10G21     N/A
* WISE RIVER   N/A       51   8  17 W17G27     N/A
$$

MTZ009>010-012-014-046-048-049-054-202200-
EAST SLOPES AND CENTRAL MONTANA
CITY           SKY/WX    TMP DP  RH WIND       PRES   REMARKS
CUT BANK       SUNNY     55  19  24 W23G32    30.08R
GREAT FALLS    PTCLDY    59  16  18 W21G29    30.10R
HELENA         PTCLDY    61  16  17 W17G24    30.15S
MALMSTROM AFB  PTCLDY    59  12  15 W17G30    30.08R
* DEARBORN     N/A       56  18  22 S16G23     N/A
* MONARCH      N/A       49  12  22 W18G27     N/A
* PENDROY      N/A       54  19  25 W26G38     N/A
* ROGERS PASS  N/A       46  16  30 E12G19     N/A
* SAINT MARY   N/A       45  25  45 SW10G23    N/A
* SWEET GRASS  N/A       54  16  22 NW20G35    N/A
$$

MTZ011-013-016-021-035-040-045-047-050-051-202200-
NORTH CENTRAL MONTANA
CITY           SKY/WX    TMP DP  RH WIND       PRES   REMARKS
HAVRE          PTSUNNY   63  21  20 NW23G32   30.02R
LEWISTOWN      SUNNY     55  16  21 NW17G29   30.08S
* DENTON       N/A       60  21  22 W21G31     N/A
* GEYSER       N/A       56  17  22 W24G34     N/A
* JUDITH GAP   N/A       56  16  21 NW14G21    N/A
* LOMA         N/A       61  19  20 W17G32     N/A
$$

MTZ017>020-022>027-061-062-202200-
NORTHEAST MONTANA
CITY           SKY/WX    TMP DP  RH WIND       PRES   REMARKS
GLASGOW        PTSUNNY   63  27  26 NW25G38   29.96R
GLENDIVE       SUNNY     64  25  23 W22G31    29.99S
JORDAN         SUNNY     64  18  17 W26G35    30.01R
SIDNEY         PTCLDY    66  27  23 W23G30    29.95S
WOLF POINT     SUNNY     68  25  20 W22G37    29.94R
* BEAVER HILL  N/A       64  22  20 W26G37     N/A
* CIRCLE       N/A       64  30  28 W17G24     N/A
* LINDSAY DVD  N/A       62  19  19 W29G37     N/A
* NAVAJO       N/A       60  29  31 NW27G38    N/A
* SACO         N/A       65  26  23 W29G36     N/A
$$

MTZ028>042-056>058-202200-
SOUTHCENTRAL AND SOUTHEAST MONTANA
CITY           SKY/WX    TMP DP  RH WIND       PRES   REMARKS
BAKER          SUNNY     66  21  18 NW23G32   30.00R
BILLINGS       SUNNY     66  12  12 NW25G32   30.06S
LIVINGSTON     SUNNY     63  16  16 W22G36    30.10F
MILES CITY     SUNNY     64  18  17 NW17G32   30.02R
* LAUREL APT   SUNNY     64  19  18 W18G29     N/A
* ROUNDUP APT  SUNNY     63  12  13 W26G31     N/A
* HYSHAM       N/A       63  15  15 W17G27     N/A
* LAME DEER    N/A       60  16  18 W12G24     N/A
* REED POINT   N/A       63  21  20 NW24G35    N/A
* ROSCOE HILL  N/A       59  13  16 NW13G19    N/A
$$

REGIONAL REPORTS...DAKOTAS
CITY           SKY/WX    TMP DP  RH WIND       PRES   REMARKS
WILLISTON      PTCLDY    66  25  21 W20G36    29.90R
DICKINSON      PTCLDY    68  27  21 NW30G37   29.92R
CROSBY         PTCLDY    63  32  31 NW16G24   29.86F
TIOGA          SUNNY     63  27  26 W25G38    29.90S
WATFORD CITY   SUNNY     66  27  23 NW20G30   29.90S
BISMARCK       CLOUDY    75  32  21 SW15      29.86F
GRAND FORKS    PTSUNNY   72  37  28 S13       29.91F
FARGO          PTCLDY    73  28  19 SW10      29.92F
BUFFALO SD     PTSUNNY   68  28  22 NW23G32   29.92S
RAPID CITY     PTSUNNY   70  36  29 NW31G37   29.94S
$$

REGIONAL REPORTS...WYOMING/IDAHO/WASHINGTON
CITY           SKY/WX    TMP DP  RH WIND       PRES   REMARKS
GILLETTE       PTCLDY    63  30  29 N10       30.06F
SHERIDAN       SUNNY     63  34  34 NW18      30.07S
CODY           PTCLDY    63  30  29 N13       30.07S
YELLOWSTONE LA PTCLDY    48  18  30 VRB6G16   30.23R
SALMON         SUNNY     57  18  22 N6        30.18F
MULLAN PASS    SUNNY     37  19  48 VRB6      30.23S WCI  32
SPOKANE        PTSUNNY   54  25  33 S14G20    30.25S
$$

REGIONAL REPORTS...SASKATCHEWAN
CITY           SKY/WX    TMP DP  RH WIND       PRES   REMARKS
SWIFT CURRENT  CLOUDY    48  36  63 W40G52    29.87R

$$




USA.gov is the U.S. government's official web portal to all federal, state and local government web resources and services.